This demonstration page uses our WeatherBlox Daily Observations layout. Learn more.

40.92945, -100.16068

Hourly Observations for June 30, 2015

Temp ( °F °C ) Dew Point ( °F °C ) Humidity (%) Winds ( mph kmh ) Pressure ( in mb ) Visibility ( mi km ) Precip ( " mm )
12:15 am 00:15 Clear 68 19.9 62 16.9 83 83 Calm 29.97 1015 7 11.26538 N/A
12:35 am 00:35 Clear 66 19.1 62 16.9 87 87 Calm 29.97 1015 10 16.0934 N/A
12:55 am 00:55 Clear 65 18.6 62 16.6 88 88 Calm 29.97 1015 7 11.26538 N/A
1:15 am 01:15 Clear 65 18.3 61 16.2 88 88 N 3 6 29.97 1015 10 16.0934 N/A
1:35 am 01:35 Clear 65 18.2 62 16.5 90 90 Calm 29.97 1015 7 11.26538 N/A
1:55 am 01:55 Clear 65 18.2 62 16.4 89 89 Calm 29.97 1015 10 16.0934 N/A
2:15 am 02:15 Clear 65 18.5 62 16.4 88 88 Calm 29.97 1015 10 16.0934 N/A
2:35 am 02:35 Clear 65 18.4 62 16.4 88 88 Calm 29.97 1015 10 16.0934 N/A
2:55 am 02:55 Clear 64 17.8 61 16 89 89 Calm 29.94 1014 10 16.0934 N/A
3:15 am 03:15 Clear 63 17.4 60 15.8 90 90 NW 3 6 29.94 1014 10 16.0934 N/A
3:35 am 03:35 Clear 62 16.8 59 15.2 90 90 N 3 6 29.94 1014 10 16.0934 N/A
3:55 am 03:55 Clear 62 16.7 59 15.2 91 91 NNE 3 6 29.94 1014 10 16.0934 N/A
4:15 am 04:15 Clear 62 16.6 59 15 90 90 NE 3 6 29.94 1014 10 16.0934 N/A
4:35 am 04:35 Clear 62 16.6 59 15.1 91 91 NNE 3 6 29.94 1014 10 16.0934 N/A
4:55 am 04:55 Clear 61 16.2 58 14.7 91 91 Calm 29.97 1015 10 16.0934 N/A
5:15 am 05:15 Clear 62 16.5 59 14.9 90 90 NE 3 6 29.94 1014 10 16.0934 N/A
5:35 am 05:35 Clear 62 16.4 59 14.9 91 91 NE 3 6 29.97 1015 10 16.0934 N/A
5:55 am 05:55 Clear 61 16.3 59 14.8 91 91 Calm 29.97 1015 10 16.0934 N/A
6:15 am 06:15 Sunny 61 16 58 14.5 91 91 NE 3 6 29.97 1015 7 11.26538 N/A
6:35 am 06:35 Sunny 61 16.2 59 14.8 91 91 ENE 3 6 29.97 1015 7 11.26538 N/A
6:55 am 06:55 Sunny 62 16.6 59 15.1 91 91 Calm 29.94 1014 7 11.26538 0 0
7:15 am 07:15 Sunny 65 18.6 62 16.6 88 88 Calm 29.94 1014 10 16.0934 N/A
7:35 am 07:35 Sunny with Mist and Fog 67 19.7 63 17 85 85 Calm 29.91 1013 2.5 4.02335 N/A
7:55 am 07:55 Mostly Cloudy with Haze 69 20.5 64 17.6 84 84 Calm 29.91 1013 1.25 2.011675 N/A
8:15 am 08:15 Sunny 71 21.8 64 18 79 79 Calm 29.91 1013 7 11.26538 N/A
8:35 am 08:35 Sunny 73 23 65 18.2 74 74 Calm 29.91 1013 10 16.0934 N/A
8:55 am 08:55 Sunny 74 23.5 64 17.7 70 70 Calm 29.88 1012 10 16.0934 N/A
9:15 am 09:15 Sunny 77 24.8 65 18.1 66 66 SSE 6 9 29.88 1012 7 11.26538 N/A
9:35 am 09:35 Sunny 78 25.7 64 17.5 61 61 S 6 9 29.88 1012 10 16.0934 N/A
9:55 am 09:55 Sunny 81 27.2 63 17.3 55 55 S 7 11 29.85 1011 10 16.0934 N/A
10:15 am 10:15 Sunny 82 28 64 17.5 53 53 SW 6 9 29.83 1010 10 16.0934 N/A
10:35 am 10:35 Sunny 82 27.9 64 17.6 54 54 S 6 9 29.83 1010 10 16.0934 N/A
10:55 am 10:55 Sunny 84 28.8 63 17.1 49 49 S 7 11 29.83 1010 10 16.0934 N/A
11:15 am 11:15 Sunny 87 30.4 64 17.5 46 46 SSW 6 9 29.83 1010 10 16.0934 N/A
11:35 am 11:35 Sunny 88 31.3 63 17.3 43 43 SSW 6 9 29.8 1009 10 16.0934 N/A
11:55 am 11:55 Sunny 90 32.2 61 16 38 38 SSW 10 17 29.77 1008 10 16.0934 N/A
12:15 pm 12:15 Sunny 91 33 60 15.8 36 36 SSW 8 13 29.77 1008 10 16.0934 N/A
12:35 pm 12:35 Sunny 91 33 59 15 34 34 SSW 9 15 29.77 1008 10 16.0934 N/A
12:55 pm 12:55 Sunny 92 33.4 59 15.1 33 33 SSW 10 17 29.77 1008 10 16.0934 N/A
1:15 pm 13:15 Sunny 93 34 59 15.1 32 32 SSW 12 19 29.74 1007 10 16.0934 N/A
1:35 pm 13:35 Sunny 95 34.9 59 15.1 30 30 SW 9 15 29.71 1006 10 16.0934 N/A
1:55 pm 13:55 Sunny 95 35 58 14.5 29 29 WSW 8 13 29.71 1006 10 16.0934 N/A
2:15 pm 14:15 Sunny 96 35.4 59 14.8 29 29 SW 10 17 29.71 1006 10 16.0934 N/A
2:35 pm 14:35 Sunny 97 35.9 57 13.7 26 26 SW 9 15 29.71 1006 7 11.26538 N/A
2:55 pm 14:55 Sunny 96 35.7 56 13.2 26 26 WSW 6 9 29.71 1006 10 16.0934 N/A
3:15 pm 15:15 Sunny 95 35.1 57 13.7 27 27 WSW 6 9 29.71 1006 7 11.26538 N/A
3:35 pm 15:35 Sunny 97 36 55 12.9 25 25 WSW 7 11 29.68 1005 10 16.0934 N/A
3:55 pm 15:55 Sunny 96 35.5 56 13.2 26 26 WSW 6 9 29.68 1005 10 16.0934 N/A
4:15 pm 16:15 Sunny 95 35.1 57 13.8 28 28 WSW 3 6 29.68 1005 10 16.0934 N/A
4:35 pm 16:35 Sunny 94 34.6 58 14.3 29 29 WSW 3 6 29.68 1005 10 16.0934 N/A
4:55 pm 16:55 Sunny 94 34.2 59 15.2 32 32 SSW 3 6 29.65 1004 10 16.0934 N/A
5:15 pm 17:15 Sunny 94 34.6 56 13.4 28 28 Calm 29.65 1004 10 16.0934 N/A
5:35 pm 17:35 Sunny 94 34.3 56 13.1 28 28 Calm 29.65 1004 10 16.0934 N/A
5:55 pm 17:55 Sunny 94 34.3 58 14.5 30 30 SSE 7 11 29.62 1003 10 16.0934 N/A
6:15 pm 18:15 Sunny 94 34.2 57 14.1 30 30 SE 5 7 29.62 1003 10 16.0934 N/A
6:35 pm 18:35 Partly Cloudy 92 33.5 57 14.1 31 31 SE 5 7 29.62 1003 10 16.0934 N/A
7:15 pm 19:15 Sunny 91 33 62 16.7 38 38 SE 8 13 29.62 1003 10 16.0934 N/A
9:15 pm 21:15 Clear 85 29.4 65 18.5 52 52 SE 6 9 29.65 1004 10 16.0934 N/A
9:35 pm 21:35 Clear 82 27.7 66 19.1 60 60 E 6 9 29.68 1005 10 16.0934 N/A
9:55 pm 21:55 Clear 81 27 66 19.1 62 62 ESE 6 9 29.68 1005 10 16.0934 N/A
10:15 pm 22:15 Clear 80 26.9 66 19.1 62 62 ESE 6 9 29.68 1005 10 16.0934 N/A
10:35 pm 22:35 Clear 80 26.8 65 18.6 61 61 ENE 6 9 29.68 1005 10 16.0934 N/A
10:55 pm 22:55 Clear 79 26.1 65 18.4 63 63 E 9 15 29.68 1005 10 16.0934 N/A
11:15 pm 23:15 Clear 79 25.9 65 18.5 64 64 E 7 11 29.68 1005 10 16.0934 N/A
11:35 pm 23:35 Clear 78 25.4 66 19 68 68 ENE 7 11 29.71 1006 10 16.0934 N/A
11:55 pm 23:55 Clear 76 24.6 67 19.5 73 73 E 8 13 29.71 1006 10 16.0934 N/A

Powered by AerisWeather